Weather in Radishevo

Russia / Ulyanovsk Oblast     52°51′06″N   47°51′59″E
temp.,
°C
wind,
m/s
gust,
m/s
humid.,
%
clouds,
%
prec.,
mm/h
press.,
hPa
HPBL,
m
14 april, wed
wed1401:00+9ese22660 0.0 103013
04:00+7e22701 0.0 103012
07:00+7e35805 0.0 102984
10:00+13ese58725 0.0 1028437
13:00+17ese68520 0.0 1026978
16:00+18se68474 0.0 10241278
19:00+15ese48640 0.0 1023198
22:00+11ese38780 0.0 1023132
15 april, thu
thu1501:00+9ese22820 0.0 102219
04:00+8e22835 0.0 102211
07:00+8ene228247 0.0 102119
10:00+14ese455752 0.0 1020341
13:00+18se4645100 0.0 1019680
16:00+20se453899 0.0 10181273
19:00+17ese33517 0.0 101725
22:00+13ese22595 0.0 101812
16 april, fri
fri1601:00+11ese226219 0.0 101710
04:00+10e116063 0.0 101810
07:00+10ene226237 0.0 101811
10:00+16e354646 0.0 1018393
13:00+19e443617 0.0 10191207
16:00+20e443454 0.0 10182120
19:00+17ne365259 0.0 1019110
22:00+13ne6126926 0.0 1020338
17 april, sat
sat1701:00+11ne51079100 0.0 1021319
04:00+9ne598376 0.0 1022320
07:00+8ne4107961 0.0 1023339
10:00+11ene7962100 0.1 1023605
13:00+14ne77435 0.0 10241055
16:00+14ne67335 0.0 10241304
19:00+11ne58405 0.0 1025298
22:00+8ne411515 0.0 1026246
18 april, sun
sun1801:00+6ne39615 0.0 1026208
04:00+4nne34652 0.0 102773
07:00+4nne38682 0.0 1028219
10:00+9ne56550 0.0 1029839
13:00+11ne66465 0.0 10291427
16:00+11nne810415 0.0 10271466
19:00+10ne58475 0.0 1029577
22:00+6nne310601 0.0 1031244